User: anonymous   Login
Location: İstanbul
(41.0082°N, 28.9784°E)
Time: 02:07:21
(UTC+03:00)
Language:

NOAA 19 - Orbit

View from above orbital plane
View from above orbital plane
View from above satellite
View from above satellite

Ground track
Ground track

The orbit data is extracted from the following two-line orbital elements,

1 33591U 09005A   24109.82032035  .00000486  00000-0  28493-3 0  9991
2 33591  99.0527 164.9786 0014902  99.8936 260.3918 14.12971896783247
Epoch (UTC): 18 April 2024 19:41:15
Eccentricity: 0.0014902
inclination: 99.0527°
perigee height: 838 km
apogee height: 860 km
right ascension of ascending node: 164.9786°
argument of perigee: 99.8936°
revolutions per day: 14.12971896
mean anomaly at epoch: 260.3918°
orbit number at epoch: 78324

The dashed part of the orbit path shows where the satellite is in the earth's shadow,  

DLR